Tracking 29892 objects as of 21-Nov-2024
HD Live streaming from Space Station
objects crossing your sky now

PEGASUS DEB

Track PEGASUS DEB now!
10-day predictions


NORAD ID: 39312
Int'l Code: 1994-029AEX
Perigee: 539.4 km
Apogee: 849.5 km
Inclination: 82.0 °
Period: 98.5 minutes
Semi major axis: 7065 km
RCS: 0.0073 m2 (small)
Launch date: May 19, 1994
Source: United States (US)
Launch site: AIR FORCE WESTERN TEST RANGE (AFWTR)

Note: This is SATELLITE DEBRIS
Your satellite tracking list
Your tracking list is empty




NASA's NSSDC Master Catalog

Two Line Element Set (TLE):
1 39312U 94029AEX 24323.98894371  .00008227  00000-0  11619-2 0  9994
2 39312  81.9797 222.7244 0219385 115.2595 247.1519 14.61816229604784
Source of the keplerian elements: AFSPC